Find Starlink 11365

NORAD ID: 62886 Int'l Des: 2025-024 Owner: SPXS Country: US Constellation: starlink operational
LEOCIRCULAR

实时位置

正在加载3D地球...

关于 Starlink 11365

正在加载描述...

即将过境

Passes for default location (London). Set your location on the main map for personalized predictions.

高度历史

Loading altitude history...

两行轨道根数

1 62886U 25024H 26127.14584711 .00277473 00000-0 20664-2 0 9992
2 62886 43.0020 188.7973 0003416 247.5341 112.5165 15.71159733 72668
Epoch: May 7, 2026 • Age: 12 hours

当前状态

高度 364.1 km
速度 7.69 km/s
星下点 -38.73°S, 29.17°W
发射日期 Feb 4, 2025
运行时间 1.2 years
类型 internet

技术详情

分类 Payload
质量 960.00 kg
干质量 910.00 kg
总质量 960.00 kg
长度 0.30 m
直径 4.10 m
跨度 29.00 m
形状 Box + pan
制造商 SPXS
平台类型 Starlink V2MD
阶段状态 In Orbit
所有者/国家 SPXS/US

Most Searched